Location: Frankfurt+am+Main
(50.1100°N, 8.4815°E)
Time: 21:24:47
(UTC+02:00)

ISS - Pass Details

Date: 08 January 2018
Orbit: 401 x 409 km, 51.6° (Epoch: 22 August)

Event Time Altitude Azimuth Distance (km) Brightness Sun altitude
Exits shadow 05:06:56 14° 77° (ENE) 1,284 -0.5 -30.5°
Drops below altitude 10° 05:07:31 10° 78° (ENE) 1,513 -0.1 -30.4°
Sets 05:09:38 0° 82° (E) 2,382 1.2 -30.1°
